Simultaneous Nadir Overpasses (SNOs) Predictions

Prediction of SNOs between NOAA-20 and NOAA-19 Satellite Orbit:

Table of predicted SNOs for the next 14.0 days since TLE Epoch: 4/13/2024
Index Date (NOAA-20) Time (NOAA-20) Lat,Lon (NOAA-20) SZA (NOAA-20 ) Date (NOAA-19) Time (NOAA-19) Lat,Lon (NOAA-19) SZA (NOAA-19 ) Distance(km) Time Diff (sec)
1 04/24/2024 19:48:21 -73.45, 53.40 119.65 04/24/2024 19:47:06 -73.42, 53.11 119.64 9.92 75
2 04/24/2024 20:39:08 73.51,-139.43 60.42 04/24/2024 20:38:00 73.51,-139.40 60.43 1.17 68
3 04/24/2024 21:29:52 -73.53, 27.83 119.57 04/24/2024 21:29:01 -73.53, 27.87 119.57 1.73 51
4 04/24/2024 22:20:38 73.55,-164.89 60.43 04/24/2024 22:19:57 73.52,-164.86 60.42 2.79 41
5 04/24/2024 23:11:22 -73.52, 2.48 119.61 04/24/2024 23:10:59 -73.54, 2.41 119.59 2.88 23
6 04/25/2024 00:02:08 73.53, 169.76 60.39 04/25/2024 00:01:55 73.53, 169.67 60.40 3.09 13
7 04/25/2024 00:52:53 -73.56, -22.98 119.60 04/25/2024 00:52:57 -73.55, -23.06 119.60 3.03 4
8 04/25/2024 01:43:39 73.57, 144.30 60.41 04/25/2024 01:43:52 73.59, 144.32 60.43 2.17 13
9 04/25/2024 02:34:24 -73.59, -48.44 119.58 04/25/2024 02:34:54 -73.60, -48.41 119.58 1.29 30
10 04/25/2024 03:25:10 73.61, 118.84 60.43 04/25/2024 03:25:50 73.60, 118.85 60.41 0.97 40
11 04/25/2024 04:15:55 -73.63, -73.90 119.56 04/25/2024 04:16:52 -73.61, -73.88 119.59 2.09 57
12 04/25/2024 05:06:41 73.64, 93.38 60.45 04/25/2024 05:07:47 73.66, 93.50 60.44 3.90 66
13 04/25/2024 05:57:33 -74.01,-100.19 119.16 04/25/2024 05:58:43 -73.96, -98.50 119.31 52.17 70



Historial Predications of SNOs between NOAA-20 and NOAA-19
